Weather observations for the past three days for
Harry Reid International Airport
Metric (Imperial)
Date Time (pdt) Wind (kph) Vis. (km) Weather Sky Cond. Temperature (ºC) Relative Humidity Wind Chill (°C) Heat Index (°C) Pressure Precipitation (cm)
Air Dwpt 6 hour altimeter (cm) sea level (mb) 1 hr 3 hr 6 hr
Max. Min.
21 10:56 Calm 16.09 A Few Clouds FEW120 36.1 2.8 36.1 27.2 12% 33 75.67 1005.4
21 09:56 E 9 16.09 Fair CLR 34.4 1.7 13% 32 75.67 1005.6
21 08:56 Calm 16.09 Fair CLR 33.3 1.7 13% 31 75.67 1005.6
21 07:56 Calm 16.09 Fair CLR 32.2 1.1 14% 30 75.64 1005.2
21 06:56 Calm 16.09 Fair CLR 29.4 2.2 17% 28 75.62 1004.7
21 05:56 SW 11 16.09 Fair CLR 27.2 1.7 19% 26 75.57 1004.1
21 04:56 S 7 16.09 Fair CLR 27.8 1.1 35 27.8 18% 27 75.49 1003.2
21 03:56 S 11 16.09 Fair CLR 28.9 1.1 17% 27 75.44 1002.4
21 02:56 SW 9 16.09 Fair CLR 29.4 1.1 16% 28 75.44 1002.3
21 01:56 S 7 16.09 Fair CLR 30.6 1.1 15% 29 75.41 1002.2
20 23:56 S 7 16.09 Fair CLR 32.2 0.6 13% 30 75.41 1002.1
20 22:56 S 9 16.09 Fair CLR 33.3 0.6 40 33.3 12% 31 75.41 1002.3
20 21:56 SW 13 16.09 Fair CLR 35 0.6 11% 32 75.41 1002.1
20 20:56 W 15 16.09 Fair CLR 36.1 0 10% 33 75.36 1001.3
20 19:56 SW 17 16.09 Fair CLR 37.8 0 9% 35 75.31 1000.6
20 18:56 S 15 16.09 A Few Clouds FEW120 39.4 -1.7 7% 36 75.29 1000.4
20 17:56 SW 11 16.09 A Few Clouds FEW120 40 -1.1 7% 37 75.29 1000.5
20 16:56 E 13 16.09 A Few Clouds FEW120 40 0 40.6 34.4 8% 37 75.31 1000.8
20 15:56 S 11 G 30 16.09 A Few Clouds FEW120 FEW250 40 0 8% 37 75.39 1001.9
20 14:56 SE 20 G 33 16.09 A Few Clouds FEW120 FEW250 39.4 0.6 9% 36 75.49 1003.1
20 13:56 E 13 G 30 16.09 A Few Clouds FEW250 38.3 1.7 10% 35 75.57 1004.1
20 12:56 N 7 16.09 Fair CLR 37.2 2.2 11% 34 75.62 1005.0
20 11:56 NE 11 16.09 Fair CLR 35.6 1.1 11% 33 75.69 1006.0
20 10:56 NE 7 14.48 Fair CLR 35 0.6 35 25.6 11% 32 75.72 1006.4
20 09:56 E 7 16.09 Fair CLR 32.8 -0.6 12% 30 75.74 1006.8
20 08:56 Calm 16.09 Fair CLR 31.1 -0.6 13% 29 75.77 1006.9
20 07:56 Calm 16.09 Fair CLR 30 0 14% 28 75.77 1006.9
20 06:56 NW 6 16.09 Fair CLR 27.2 0 17% 26 75.72 1006.4
20 05:56 SW 6 16.09 Fair CLR 25.6 -1.1 17% 25 75.67 1005.9
20 04:56 Calm 16.09 Fair CLR 26.1 -2.2 31.7 26.1 15% 25 75.62 1005.1
20 03:57 S 9 16.09 Fair CLR 26.7 -2.8 14% 26 75.62 1004.9
20 02:56 W 6 16.09 Fair CLR 27.8 -2.8 13% 26 75.59 1004.5
20 01:56 SW 9 16.09 Fair CLR 27.8 -3.3 13% 26 75.57 1004.4
20 00:56 SW 7 16.09 Fair CLR 29.4 -3.3 12% 28 75.57 1004.5
19 23:56 S 7 16.09 Fair CLR 30.6 -3.9 10% 29 75.57 1004.5
19 22:56 S 9 16.09 Fair CLR 31.7 -3.9 37.2 31.7 10% 30 75.57 1004.5
19 21:56 SW 9 16.09 Fair CLR 32.8 -4.4 9% 30 75.57 1004.3
19 20:56 W 11 16.09 Fair CLR 34.4 -5 8% 32 75.51 1003.7
19 19:56 W 15 16.09 Fair CLR 35.6 -5.6 7% 33 75.46 1002.9
19 18:56 E 17 16.09 Fair CLR 36.1 -6.1 6% 33 75.44 1003.0
19 17:56 N 6 16.09 Fair CLR 36.7 -7.2 6% 34 75.46 1003.0
19 16:56 Calm 16.09 A Few Clouds FEW160 37.2 -7.2 37.2 31.7 5% 34 75.49 1003.7
19 15:56 E 13 16.09 Fair CLR 36.7 -7.8 5% 34 75.54 1004.2
19 14:56 E 13 16.09 Fair CLR 36.1 -7.8 6% 33 75.59 1004.9
19 13:56 Vrbl 9 16.09 Fair CLR 35.6 -6.7 6% 33 75.67 1005.9
19 12:56 Vrbl 7 16.09 Fair CLR 33.9 -8.3 6% 31 75.72 1006.8
19 11:56 E 7 16.09 Fair CLR 32.8 -6.7 7% 30 75.77 1007.3
19 10:56 E 6 16.09 Fair CLR 31.7 -8.9 31.7 22.8 7% 30 75.79 1007.4
19 09:56 E 9 16.09 Fair CLR 30 -6.1 9% 28 75.77 1007.4
19 08:56 Vrbl 11 16.09 Fair CLR 28.9 -7.2 9% 27 75.79 1007.6
19 07:56 N 6 16.09 Fair CLR 27.2 -6.1 11% 26 75.77 1007.3
19 06:56 Calm 14.48 A Few Clouds FEW250 25 -4.4 14% 25 75.72 1007.0
19 05:56 Calm 16.09 Fair CLR 23.3 -7.2 12% 75.69 1006.6
19 04:56 S 6 16.09 A Few Clouds FEW160 22.8 -8.3 30 22.8 12% 75.64 1005.9
19 03:56 SW 6 16.09 Fair CLR 23.3 -10 10% 75.59 1005.3
19 02:56 SW 9 16.09 Partly Cloudy SCT230 24.4 -10.6 9% 24 75.57 1005.0
19 01:56 S 7 16.09 Mostly Cloudy BKN230 25.6 -8.3 10% 25 75.57 1004.9
19 00:56 W 11 16.09 Mostly Cloudy BKN230 26.7 -6.7 11% 26 75.59 1005.0
18 23:56 SW 7 16.09 Mostly Cloudy BKN240 28.3 -7.8 9% 27 75.62 1005.4
18 22:56 NE 7 16.09 Mostly Cloudy SCT200 BKN250 30 -10.6 32.8 30 6% 28 75.62 1005.6
18 21:56 E 6 16.09 Mostly Cloudy SCT200 BKN250 30 -9.4 7% 28 75.62 1005.4
18 20:56 NE 11 16.09 Mostly Cloudy SCT200 BKN250 30.6 -10 6% 29 75.54 1004.7
18 19:56 NE 11 16.09 Mostly Cloudy SCT200 BKN250 31.1 -10 6% 29 75.49 1004.0
18 18:56 NE 11 16.09 Mostly Cloudy SCT200 BKN250 31.7 -10 6% 30 75.49 1003.7
18 17:56 N 9 16.09 Partly Cloudy FEW200 SCT250 32.2 -10 6% 30 75.49 1003.9
18 16:56 NE 6 16.09 Mostly Cloudy FEW200 BKN250 31.1 -10 32.2 26.7 6% 29 75.54 1004.6
18 15:56 Vrbl 6 16.09 Partly Cloudy SCT200 31.7 -10 6% 30 75.62 1005.4
18 14:56 Calm 16.09 Partly Cloudy SCT200 30.6 -9.4 7% 29 75.67 1006.2
18 13:56 NE 15 16.09 A Few Clouds FEW200 29.4 -7.2 9% 28 75.72 1006.8
18 12:56 Vrbl 6 16.09 Mostly Cloudy BKN200 28.9 -6.7 9% 27 75.77 1007.6
18 11:56 Vrbl 6 G 30 16.09 Mostly Cloudy BKN200 27.8 -7.2 9% 26 75.82 1008.2
Date Time (pdt) Wind (kph) Vis. (km) Weather Sky Cond. Air Dwpt Max. Min. Relative Humidity Wind Chill (°C) Heat Index (°C) altimeter (cm) sea level (mb) 1 hr 3 hr 6 hr
6 hour
Temperature (ºC) Pressure Precipitation (cm)